Stations météo

réclame
Mon MeteoGroup
Aviano, Italie (16036): Température de l'air & dewpoint: 19.02.2018 06:00:00 - 25.02.2018 06:00:00 (CET)Aviano, Italie (16036): Vitesse du vent: 19.02.2018 06:00:00 - 25.02.2018 06:00:00 (CET)Aviano, Italie (16036): Direction du vent: 19.02.2018 06:00:00 - 25.02.2018 06:00:00 (CET)Aviano, Italie (16036): reduced air pressure: 19.02.2018 06:00:00 - 25.02.2018 06:00:00 (CET)Aviano, Italie (16036): visibility: 19.02.2018 06:00:00 - 25.02.2018 06:00:00 (CET)
Date & Time tt [°C] td [°C] ff [km/h] ff [knt] dd ppp [hPa] vv [km]
25.02.2018 06:00:00 - - - - - - -
25.02.2018 05:00:00 - - - - - - -
25.02.2018 04:00:00 - - - - - - -
25.02.2018 03:00:00 - - - - - - -
25.02.2018 02:00:00 - - - - - - -
25.02.2018 01:00:00 - - - - - - -
25.02.2018 00:00:00 - - - - - - -
24.02.2018 23:00:00 - - - - - - -
24.02.2018 22:00:00 3,2 -4,3 24 13 E 1014,6 20
24.02.2018 21:00:00 4,0 -3,0 15 8 NE - 10
24.02.2018 20:00:00 5,0 -2,0 9 5 E - 10
24.02.2018 19:00:00 6,2 -1,9 15 8 E 1012,8 20
24.02.2018 18:00:00 7,0 -1,0 18 10 E - 10
24.02.2018 17:00:00 9,0 1,0 13 7 ESE - 10
24.02.2018 16:00:00 10,8 1,1 16 9 ESE 1010,8 20
24.02.2018 15:00:00 11,0 2,0 22 12 ESE - 10
24.02.2018 14:00:00 10,0 1,0 26 14 E - 10
24.02.2018 13:00:00 11,6 1,5 22 12 E 1010,8 35
24.02.2018 12:00:00 12,0 2,0 16 9 ESE - 10
24.02.2018 11:00:00 11,0 2,0 16 9 E - 10
24.02.2018 10:00:00 10,0 1,6 11 6 E 1010,8 30
24.02.2018 09:00:00 9,0 1,0 13 7 ENE - 10
24.02.2018 08:00:00 6,0 1,0 9 5 NNE - 10
24.02.2018 07:00:00 5,0 0,8 13 7 NE 1009,9 35
24.02.2018 06:00:00 7,0 1,0 8 4 NNE - 10
24.02.2018 05:00:00 7,0 2,0 9 5 NNE - 10
24.02.2018 04:00:00 - - - - - - -
24.02.2018 03:00:00 - - - - - - -
24.02.2018 02:00:00 - - - - - - -
24.02.2018 01:00:00 - - - - - - -
24.02.2018 00:00:00 - - - - - - -
23.02.2018 23:00:00 - - - - - - -
23.02.2018 22:00:00 6,6 2,1 16 9 NE 1010,8 15
23.02.2018 21:00:00 7,0 1,0 16 9 NE - 10
23.02.2018 20:00:00 7,0 1,0 11 6 NE - 10
23.02.2018 19:00:00 7,2 0,9 9 5 ENE 1009,9 25
23.02.2018 18:00:00 8,0 1,0 9 5 ENE - 10
23.02.2018 17:00:00 9,0 0,0 24 13 E - 10
23.02.2018 16:00:00 10,2 -3,1 24 13 E 1007,6 30
23.02.2018 15:00:00 11,0 -1,0 22 12 E - 10
23.02.2018 14:00:00 10,0 0,0 22 12 E - 10
23.02.2018 13:00:00 9,4 0,8 21 11 E 1009,6 25
23.02.2018 12:00:00 9,0 1,0 16 9 ENE - 10
23.02.2018 11:00:00 7,0 0,0 18 10 NE - 10
23.02.2018 10:00:00 5,8 1,7 18 10 NE 1010,3 30
23.02.2018 09:00:00 4,0 3,0 16 9 NE - 10
23.02.2018 08:00:00 3,0 3,0 21 11 ENE - 10
23.02.2018 07:00:00 3,4 3,4 24 13 ENE 1009,4 25
23.02.2018 06:00:00 4,0 3,0 18 10 E - 10
23.02.2018 05:00:00 5,0 2,0 22 12 E - 10
23.02.2018 04:00:00 - - - - - - -
23.02.2018 03:00:00 - - - - - - -
23.02.2018 02:00:00 - - - - - - -
23.02.2018 01:00:00 - - - - - - -
23.02.2018 00:00:00 - - - - - - -
22.02.2018 23:00:00 - - - - - - -
22.02.2018 22:00:00 4,4 0,9 13 7 NNE 1010,1 25
22.02.2018 21:00:00 5,0 2,0 9 5 NNE - 10
22.02.2018 20:00:00 5,0 1,0 18 10 E - 10
22.02.2018 19:00:00 6,8 1,1 0 0 E 1009,5 30
22.02.2018 18:00:00 7,0 1,0 15 8 ENE - 10
22.02.2018 17:00:00 6,0 2,0 22 12 NE - 10
22.02.2018 16:00:00 6,0 2,5 16 9 ENE 1009,2 25
22.02.2018 15:00:00 6,0 3,0 24 13 E - 10
22.02.2018 14:00:00 5,0 3,0 22 12 E - 10
22.02.2018 13:00:00 5,2 3,1 28 15 E 1009,6 18
22.02.2018 12:00:00 7,0 2,0 28 15 ENE - 10
22.02.2018 11:00:00 7,0 2,0 22 12 ENE - 10
22.02.2018 10:00:00 7,6 1,0 29 16 NE 1008,4 15
22.02.2018 09:00:00 7,0 2,0 29 16 NE - 10
22.02.2018 08:00:00 6,0 1,0 29 16 NE - 10
22.02.2018 07:00:00 6,2 0,7 24 13 NE 1007,1 12
22.02.2018 06:00:00 7,0 -1,0 22 12 ENE - 10
22.02.2018 05:00:00 7,0 -1,0 21 11 ENE - 10
22.02.2018 04:00:00 - - - - - - -
22.02.2018 03:00:00 - - - - - - -
22.02.2018 02:00:00 - - - - - - -
22.02.2018 01:00:00 - - - - - - -
22.02.2018 00:00:00 - - - - - - -
21.02.2018 23:00:00 - - - - - - -
21.02.2018 22:00:00 4,8 0,8 5 3 WSW 1008,4 25
21.02.2018 21:00:00 5,0 0,0 5 3 W - 10
21.02.2018 20:00:00 4,0 -1,0 8 4 NW - 10
21.02.2018 19:00:00 5,4 -0,7 8 4 W 1008,8 25
21.02.2018 18:00:00 7,0 0,0 5 3 ENE - 10
21.02.2018 17:00:00 8,0 -1,0 4 2 SSE - 10
21.02.2018 16:00:00 9,4 -0,8 5 3 ESE 1008,4 30
21.02.2018 15:00:00 10,0 -1,0 13 7 SE - 10
21.02.2018 14:00:00 10,0 -1,0 11 6 WSW - 10
21.02.2018 13:00:00 8,2 -0,6 9 5 SW 1009,3 30
21.02.2018 12:00:00 7,0 -1,0 8 4 SSW - 10
21.02.2018 11:00:00 6,0 -2,0 5 3 SW - 10
21.02.2018 10:00:00 4,2 -1,4 8 4 SSW 1010,2 30
21.02.2018 09:00:00 2,0 -1,0 5 3 NW - 10
21.02.2018 08:00:00 0,0 -2,0 5 3 WSW - 10
21.02.2018 07:00:00 0,6 -2,0 2 1 WNW 1010,0 20
21.02.2018 06:00:00 0,0 -2,0 5 3 W - 10
21.02.2018 05:00:00 1,0 -1,0 5 3 NE - 10
21.02.2018 04:00:00 - - - - - - -
21.02.2018 03:00:00 - - - - - - -
21.02.2018 02:00:00 - - - - - - -
21.02.2018 01:00:00 - - - - - - -
21.02.2018 00:00:00 - - - - - - -
20.02.2018 23:00:00 - - - - - - -
20.02.2018 22:00:00 2,6 0,0 4 2 E 1009,3 25
20.02.2018 21:00:00 4,0 0,0 4 2 E - 10
20.02.2018 20:00:00 4,0 -1,0 4 2 NW - 10
20.02.2018 19:00:00 4,8 -1,2 4 2 W 1008,9 30
20.02.2018 18:00:00 6,0 -1,0 5 3 SW - 10
20.02.2018 17:00:00 6,0 -1,0 5 3 SSW - 10
20.02.2018 16:00:00 6,4 -2,2 5 3 S 1008,7 30
20.02.2018 15:00:00 6,0 -3,0 5 3 SSE - 10
20.02.2018 14:00:00 6,0 -3,0 2 1 SW - 10
20.02.2018 13:00:00 5,8 -3,0 4 2 SSW 1009,8 20
20.02.2018 12:00:00 5,0 -3,0 8 4 S - 10
20.02.2018 11:00:00 5,0 -3,0 9 5 WSW - 10
20.02.2018 10:00:00 3,8 -2,2 4 2 SSW 1010,6 10
20.02.2018 09:00:00 2,0 -1,0 2 1 NW - 10
20.02.2018 08:00:00 1,0 -1,0 4 2 NNE - 10
20.02.2018 07:00:00 0,2 -1,5 8 4 NNE 1011,0 20
20.02.2018 06:00:00 -1,0 -2,0 8 4 N - 10
20.02.2018 05:00:00 -1,0 -3,0 8 4 N - 10
20.02.2018 04:00:00 - - - - - - -
20.02.2018 03:00:00 - - - - - - -
20.02.2018 02:00:00 - - - - - - -
20.02.2018 01:00:00 - - - - - - -
20.02.2018 00:00:00 - - - - - - -
19.02.2018 23:00:00 - - - - - - -
19.02.2018 22:00:00 2,4 -3,5 4 2 SW 1015,0 30
19.02.2018 21:00:00 3,0 -1,0 4 2 ENE - 10
19.02.2018 20:00:00 4,0 -3,0 8 4 ENE - 10
19.02.2018 19:00:00 4,4 -3,1 9 5 ENE 1015,9 25
19.02.2018 18:00:00 5,0 -3,0 9 5 E - 10
19.02.2018 17:00:00 6,0 -2,0 11 6 E - 10
19.02.2018 16:00:00 6,4 -2,2 18 10 E 1016,1 30
19.02.2018 15:00:00 7,0 -1,0 15 8 E - 10
19.02.2018 14:00:00 7,0 -2,0 15 8 E - 10
19.02.2018 13:00:00 6,6 -1,1 15 8 E 1017,8 20
19.02.2018 12:00:00 7,0 -1,0 15 8 ENE - 10
19.02.2018 11:00:00 7,0 0,0 16 9 ENE - 10
19.02.2018 10:00:00 5,4 0,2 15 8 NE 1019,5 20
19.02.2018 09:00:00 5,0 -1,0 15 8 ENE - 10
19.02.2018 08:00:00 5,0 -1,0 15 8 E - 10
19.02.2018 07:00:00 4,6 -1,0 18 10 E 1022,4 20
19.02.2018 06:00:00 5,0 -1,0 11 6 NE - 10

tt = Température de l'air
td = dewpoint
ff = Vitesse du vent
dd = Direction du vent
ppp = reduced air pressure
vv = visibility

stations d'obs. à proximité